K5TCS Weather Reports


Display with metric or nautical units.
time (UTC)temp
F
wind
direction
speed
MPH
gust
MPH
rain 1hr
in
rain 24hr
in
rain mn
in
humidity
%
barometer
mb
20260503210017 65 203 6.0 13.0 0.01 0.12 0.07 45 1025.2
20260503205020 65 225 5.0 15.0 0.01 0.12 0.07 42 1025.4
20260503204016 67 225 3.0 14.0 0.01 0.12 0.07 41 1025.4
20260503203036 65 203 2.0 11.0 0.01 0.13 0.07 43 1025.4
20260503202036 64 225 2.0 11.0 0.01 0.13 0.07 42 1025.1
20260503201016 65 248 5.0 15.0 0.01 0.13 0.07 40 1026.0
20260503200036 66 225 4.0 11.0 0.00 0.12 0.06 42 1026.7
20260503195017 64 225 3.0 11.0 0.00 0.12 0.06 44 1025.8
20260503194016 63 225 4.0 13.0 0.00 0.12 0.06 41 1025.8
20260503193036 64 225 3.0 12.0 0.01 0.12 0.06 42 1026.1
20260503192016 64 0.0 0.0 0.01 0.13 0.06 43 1026.2
20260503191016 64 0.0 0.0 0.01 0.13 0.06 40 1026.4
20260503190037 63 0.0 0.0 0.01 0.13 0.06 42 1026.4
20260503185016 62 0.0 0.0 0.01 0.14 0.06 42 1026.4
20260503184016 61 0.0 0.0 0.02 0.14 0.06 43 1026.5
20260503183016 62 0.0 0.0 0.01 0.13 0.05 44 1027.0
20260503182017 62 0.0 0.0 0.01 0.13 0.05 44 1027.3
20260503181016 63 0.0 0.0 0.01 0.14 0.05 43 1028.0
20260503180016 63 0.0 0.0 0.01 0.14 0.05 43 1028.3
20260503175056 61 0.0 0.0 0.01 0.14 0.05 43 1028.0
20260503174036 61 0.0 0.0 0.00 0.13 0.04 43 1028.2
20260503173016 60 0.0 0.0 0.00 0.13 0.04 43 1028.4
20260503172016 60 0.0 0.0 0.00 0.13 0.04 44 1028.6
20260503171016 60 0.0 0.0 0.01 0.13 0.04 42 1028.9
20260503131017 37 0.0 0.0 0.00 0.14 0.02 26 1025.1
20260503081016 37 0.0 1.0 0.01 0.17 0.01 26 1026.2
20260503072016 38 0.0 0.0 0.00 0.17 0.00 26 1027.1
20260503071016 38 0.0 0.0 0.00 0.17 0.00 26 1027.1
20260503055016 40 0.0 0.0 0.00 0.19 0.18 25 1025.9
20260503054016 40 270 1.0 3.0 0.00 0.19 0.18 25 1025.8
20260503053016 40 270 1.0 5.0 0.01 0.19 0.18 25 1024.7
20260503052016 40 0.0 0.0 0.01 0.20 0.18 26 1024.6
20260503051016 40 0.0 0.0 0.01 0.20 0.18 26 1024.5
20260503050016 40 0.0 0.0 0.01 0.20 0.18 25 1024.1
20260503045015 40 0.0 2.0 0.01 0.20 0.18 25 1024.0
20260503044016 41 270 1.0 4.0 0.01 0.20 0.18 25 1024.0
20260503043015 42 270 1.0 5.0 0.00 0.19 0.17 25 1024.1
20260503042015 41 0.0 0.0 0.00 0.20 0.17 25 1023.6
20260503041056 41 0.0 0.0 0.00 0.20 0.17 25 1023.6
20260503040016 42 0.0 0.0 0.00 0.20 0.17 24
20260503035016 42 0.0 2.0 0.01 0.21 0.17 24
20260503034036 43 0.0 2.0 0.01 0.21 0.17 24
20260503033018 43 0.0 0.0 0.01 0.21 0.17 24
20260503032037 43 0.0 0.0 0.01 0.21 0.17 23
20260503031017 44 0.0 0.0 0.01 0.21 0.17 23
20260503030017 44 0.0 0.0 0.01 0.21 0.17 23
20260503025017 44 0.0 0.0 0.00 0.21 0.16 23
20260503024017 44 0.0 0.0 0.00 0.21 0.16 23
20260503023017 44 0.0 1.0 0.00 0.21 0.16 23
20260503022017 45 0.0 2.0 0.00 0.22 0.16 23
20260503021017 45 0.0 0.0 0.00 0.22 0.16 23
20260503020017 45 0.0 0.0 0.00 0.22 0.16 23
20260503015017 45 0.0 1.0 0.01 0.22 0.16 23
20260503014017 45 0.0 2.0 0.01 0.22 0.16 23
20260503013037 45 0.0 1.0 0.01 0.23 0.16 22
20260503012017 45 0.0 0.0 0.01 0.23 0.16 23
20260503011037 45 0.0 1.0 0.01 0.23 0.16 23
20260503010017 45 0.0 3.0 0.01 0.24 0.16 22
20260503005017 45 0.0 4.0 0.00 0.23 0.15 23
20260503004017 45 45 1.0 3.0 0.01 0.23 0.15 23
20260503003037 45 45 1.0 6.0 0.01 0.23 0.15 23
20260503002017 45 45 1.0 4.0 0.01 0.24 0.15 23
20260503001017 45 45 1.0 5.0 0.01 0.24 0.15 24
20260503000017 44 23 1.0 5.0 0.01 0.24 0.15 26
20260502235017 45 23 1.0 6.0 0.01 0.25 0.15 27
20260502234037 45 45 2.0 6.0 0.00 0.24 0.14 31
20260502233017 47 23 2.0 7.0 0.00 0.24 0.14 36
20260502232017 48 45 3.0 13.0 0.00 0.25 0.14 41
20260502231017 50 45 4.0 11.0 0.00 0.25 0.14 44
20260502230017 54 0.0 6.0 0.00 0.26 0.14 40
20260502225017 53 0.0 2.0 0.00 0.26 0.14 40
20260502224037 52 0.0 3.0 0.00 0.26 0.14 40
20260502223017 52 0.0 3.0 0.01 0.27 0.14 41
20260502222037 53 158 1.0 4.0 0.01 0.27 0.14 42
20260502221017 52 0.0 3.0 0.01 0.28 0.14 41
20260502220037 52 158 1.0 6.0 0.01 0.28 0.14 42
20260502215016 53 158 1.0 5.0 0.01 0.28 0.14 42
20260502214037 54 0.0 3.0 0.01 0.29 0.14 40
20260502213017 55 180 1.0 6.0 0.01 0.28 0.13 38
20260502212037 53 158 1.0 5.0 0.01 0.29 0.13 39
20260502211016 54 158 1.0 6.0 0.01 0.29 0.13 38